Volver al catálogo

SL-8 DEB

ActivoSSO
NORAD 27768·DEBRIS·🇷🇺 Russia

Lanzado Nov 28, 2002 desde Plesetsk Cosmodrome

Loading…

Próximos Pases (próximas 24 horas)

TLE

ActualizadoSource: Space-Track

Época: Sep 14, 2026, 14:56 UTC

1 27768U 02054D   26257.62222549  .00001721  00000-0  24900-3 0  9994
2 27768  98.2485 134.3940 0025563 267.3137  92.5147 14.77313395268526

Sigue SL-8 DEB en tiempo real con AllMySat

Download on the App Store